Location: ActonStarParty
(42.4766°N, 71.4538°W)
Time: 15:30:48
(UTC-05:00)

ISS - Visible Passes

Search period start: 12 February 2016 00:00
Search period end: 22 February 2016 00:00
Orbit: 399 x 407 km, 51.6° (Epoch: 12 February)

Date Brightness Start Highest point End Pass type
(mag) Time Alt. Az. Time Alt. Az. Time Alt. Az.
12 Feb -1.5 18:33:54 10° NW 18:36:16 18° N 18:36:45 18° NNE visible
13 Feb -1.2 17:41:08 10° NW 17:43:18 16° N 17:45:28 10° NE visible
13 Feb -1.2 19:17:27 10° NW 19:18:54 21° NNW 19:18:54 21° NNW visible
14 Feb -1.9 18:24:51 10° NW 18:27:35 24° NNE 18:28:28 21° NE visible
14 Feb 0.2 20:01:02 10° WNW 20:01:07 10° WNW 20:01:07 10° WNW visible
15 Feb -2.5 19:08:19 10° NW 19:10:45 44° NNW 19:10:45 44° NNW visible
16 Feb -2.6 18:15:40 10° NW 18:18:45 38° NNE 18:20:27 21° E visible
16 Feb -0.2 19:52:15 10° WNW 19:53:07 16° W 19:53:07 16° W visible
17 Feb -2.9 18:59:17 10° WNW 19:02:28 56° SW 19:02:56 50° S visible
18 Feb -3.4 18:06:29 10° NW 18:09:45 76° NNE 18:12:54 11° ESE visible
18 Feb -0.3 19:44:12 10° WSW 19:45:34 13° SW 19:45:34 13° SW visible
19 Feb -1.2 18:50:31 10° W 18:53:13 24° SW 18:55:43 11° S visible
20 Feb -2.3 17:57:25 10° WNW 18:00:34 46° SW 18:03:39 10° SE visible
21 Feb 0.0 18:42:59 10° WSW 18:43:45 11° SW 18:44:31 10° SW visible
